QPF
0.10 0.10 0.09 0.09 0.09 0.09 0.08 0.09 0.08 0.07 0.06 0.06 0.06 0.06 0.07 0.07 0.07 0.07 0.08 0.09 0.08 0.07 0.06 0.05 0.04 0.04 0.04 0.05 0.06 0.06 0.07 0.07 0.09 0.10 0.09 0.08 0.07 0.07 0.07 0.07 0.06 0.06 0.06
0.11 0.10 0.10 0.09 0.08 0.09 0.07 0.08 0.08 0.10 0.08 0.09 0.09 0.09 0.07 0.08 0.07 0.06 0.07 0.08 0.07 0.05 0.04 0.04 0.05 0.05 0.05 0.05 0.05 0.06 0.06 0.07 0.08 0.09 0.09 0.09 0.08 0.07 0.07 0.07 0.07 0.06 0.05
0.12 0.11 0.09 0.08 0.08 0.09 0.08 0.07 0.10 0.11 0.09 0.08 0.08 0.09 0.09 0.10 0.09 0.08 0.07 0.07 0.05 0.06 0.06 0.06 0.05 0.05 0.06 0.06 0.05 0.05 0.06 0.06 0.07 0.09 0.09 0.09 0.09 0.08 0.07 0.07 0.07 0.07 0.07
0.11 0.13 0.10 0.09 0.10 0.10 0.09 0.09 0.10 0.10 0.11 0.10 0.10 0.09 0.10 0.12 0.13 0.10 0.08 0.07 0.06 0.06 0.07 0.06 0.06 0.05 0.05 0.05 0.05 0.06 0.06 0.06 0.05 0.05 0.06 0.07 0.08 0.08 0.08 0.06 0.06 0.06 0.07
0.10 0.11 0.11 0.12 0.13 0.10 0.09 0.08 0.11 0.11 0.11 0.10 0.10 0.10 0.10 0.10 0.12 0.10 0.09 0.07 0.08 0.09 0.09 0.08 0.08 0.07 0.06 0.06 0.06 0.07 0.07 0.06 0.05 0.04 0.05 0.05 0.07 0.08 0.09 0.09 0.08 0.07 0.06
0.09 0.09 0.09 0.11 0.12 0.11 0.10 0.09 0.10 0.10 0.10 0.10 0.08 0.09 0.10 0.08 0.09 0.08 0.07 0.08 0.09 0.08 0.08 0.08 0.10 0.09 0.08 0.08 0.07 0.08 0.08 0.08 0.07 0.05 0.06 0.06 0.07 0.08 0.09 0.08 0.08 0.08 0.06
0.08 0.08 0.08 0.11 0.12 0.12 0.11 0.10 0.10 0.10 0.09 0.10 0.10 0.09 0.08 0.07 0.06 0.06 0.05 0.06 0.06 0.06 0.07 0.07 0.09 0.11 0.11 0.10 0.09 0.09 0.09 0.09 0.09 0.08 0.06 0.06 0.07 0.08 0.08 0.09 0.08 0.07 0.07
0.06 0.06 0.07 0.09 0.09 0.10 0.10 0.09 0.10 0.09 0.08 0.10 0.10 0.11 0.10 0.09 0.08 0.05 0.04 0.04 0.04 0.05 0.06 0.07 0.10 0.12 0.11 0.10 0.07 0.08 0.08 0.08 0.09 0.09 0.08 0.06 0.06 0.07 0.08 0.09 0.10 0.09 0.08
0.07 0.06 0.07 0.06 0.06 0.07 0.08 0.08 0.08 0.09 0.09 0.09 0.10 0.11 0.11 0.09 0.08 0.06 0.05 0.05 0.06 0.06 0.05 0.06 0.08 0.09 0.10 0.11 0.10 0.08 0.09 0.09 0.10 0.10 0.10 0.09 0.07 0.06 0.06 0.07 0.09 0.09 0.08
0.07 0.07 0.08 0.07 0.07 0.06 0.07 0.07 0.08 0.10 0.10 0.09 0.09 0.10 0.10 0.10 0.09 0.07 0.06 0.05 0.05 0.04 0.04 0.04 0.05 0.07 0.09 0.11 0.13 0.13 0.10 0.10 0.09 0.10 0.10 0.11 0.09 0.08 0.07 0.06 0.07 0.09 0.10
0.06 0.06 0.07 0.07 0.06 0.06 0.06 0.08 0.11 0.11 0.10 0.09 0.09 0.09 0.09 0.09 0.10 0.10 0.08 0.05 0.05 0.06 0.06 0.05 0.05 0.05 0.07 0.10 0.13 0.13 0.10 0.08 0.06 0.06 0.06 0.08 0.09 0.08 0.08 0.08 0.08 0.08 0.09
0.06 0.05 0.05 0.06 0.06 0.06 0.06 0.08 0.09 0.09 0.09 0.10 0.10 0.10 0.09 0.10 0.09 0.09 0.08 0.07 0.07 0.07 0.08 0.07 0.07 0.07 0.07 0.08 0.10 0.11 0.08 0.05 0.05 0.05 0.06 0.06 0.07 0.08 0.08 0.08 0.08 0.09 0.09
0.05 0.07 0.07 0.07 0.07 0.07 0.07 0.08 0.08 0.07 0.07 0.09 0.09 0.09 0.08 0.08 0.08 0.08 0.08 0.06 0.06 0.06 0.07 0.08 0.08 0.07 0.07 0.08 0.08 0.08 0.08 0.05 0.05 0.06 0.07 0.08 0.07 0.07 0.06 0.05 0.06 0.07 0.08
0.06 0.08 0.08 0.09 0.07 0.07 0.07 0.08 0.07 0.07 0.07 0.07 0.08 0.08 0.08 0.07 0.07 0.07 0.08 0.08 0.07 0.05 0.06 0.06 0.06 0.07 0.07 0.07 0.07 0.07 0.06 0.06 0.04 0.04 0.05 0.06 0.07 0.06 0.06 0.06 0.06 0.06 0.07
0.06 0.07 0.07 0.08 0.07 0.07 0.07 0.07 0.06 0.07 0.08 0.08 0.07 0.07 0.06 0.06 0.06 0.06 0.07 0.08 0.08 0.06 0.06 0.07 0.07 0.07 0.08 0.09 0.06 0.04 0.05 0.06 0.04 0.03 0.03 0.04 0.05 0.05 0.05 0.05 0.05 0.05 0.05
0.05 0.06 0.06 0.08 0.07 0.07 0.07 0.08 0.07 0.08 0.09 0.09 0.08 0.07 0.06 0.05 0.05 0.06 0.06 0.06 0.07 0.07 0.06 0.06 0.06 0.07 0.08 0.06 0.05 0.05 0.06 0.05 0.05 0.03 0.02 0.02 0.03 0.04 0.05 0.05 0.05 0.06 0.06
0.05 0.05 0.06 0.06 0.06 0.06 0.07 0.07 0.07 0.08 0.08 0.08 0.08 0.07 0.06 0.07 0.07 0.07 0.08 0.08 0.08 0.08 0.07 0.05 0.05 0.06 0.08 0.08 0.06 0.06 0.06 0.06 0.06 0.04 0.03 0.02 0.02 0.02 0.03 0.04 0.03 0.04 0.04
0.06 0.06 0.05 0.04 0.05 0.06 0.08 0.08 0.07 0.08 0.08 0.07 0.07 0.07 0.08 0.08 0.11 0.11 0.11 0.10 0.09 0.08 0.07 0.05 0.04 0.05 0.05 0.07 0.08 0.07 0.05 0.05 0.06 0.05 0.04 0.03 0.03 0.02 0.02 0.02 0.02 0.02 0.02
0.06 0.06 0.05 0.04 0.05 0.07 0.09 0.10 0.09 0.08 0.07 0.08 0.08 0.08 0.07 0.08 0.08 0.08 0.09 0.10 0.09 0.08 0.09 0.07 0.06 0.06 0.06 0.06 0.07 0.08 0.07 0.07 0.05 0.03 0.03 0.03 0.03 0.02 0.02 0.02 0.02 0.03 0.02
0.06 0.05 0.05 0.05 0.05 0.06 0.07 0.08 0.09 0.09 0.08 0.08 0.08 0.07 0.07 0.07 0.08 0.07 0.06 0.07 0.08 0.10 0.12 0.09 0.08 0.07 0.07 0.07 0.07 0.07 0.07 0.07 0.05 0.03 0.04 0.03 0.03 0.03 0.02 0.02 0.02 0.02 0.03
0.05 0.05 0.05 0.06 0.07 0.05 0.04 0.05 0.07 0.06 0.07 0.08 0.08 0.07 0.06 0.06 0.07 0.06 0.04 0.05 0.06 0.08 0.10 0.08 0.07 0.06 0.06 0.07 0.07 0.06 0.06 0.07 0.06 0.05 0.06 0.06 0.04 0.03 0.03 0.02 0.02 0.02 0.02
0.06 0.06 0.07 0.07 0.06 0.04 0.05 0.05 0.06 0.05 0.06 0.06 0.07 0.07 0.05 0.05 0.05 0.04 0.03 0.03 0.04 0.05 0.06 0.06 0.06 0.06 0.05 0.06 0.07 0.07 0.07 0.07 0.06 0.06 0.06 0.05 0.05 0.05 0.05 0.05 0.04 0.03 0.02
0.07 0.07 0.09 0.07 0.06 0.06 0.04 0.03 0.03 0.03 0.04 0.06 0.07 0.07 0.06 0.05 0.05 0.05 0.04 0.03 0.03 0.03 0.03 0.04 0.05 0.04 0.04 0.05 0.06 0.07 0.08 0.08 0.07 0.07 0.07 0.05 0.05 0.05 0.04 0.05 0.06 0.05 0.04
0.07 0.07 0.08 0.06 0.06 0.04 0.01 0.01 0.01 0.02 0.04 0.06 0.06 0.06 0.06 0.05 0.04 0.04 0.03 0.03 0.04 0.03 0.03 0.03 0.04 0.04 0.04 0.04 0.05 0.06 0.06 0.06 0.07 0.08 0.07 0.08 0.07 0.07 0.06 0.06 0.06 0.07 0.06
0.06 0.07 0.06 0.04 0.04 0.03 0.00 0.00 0.01 0.02 0.04 0.05 0.05 0.05 0.05 0.05 0.03 0.03 0.04 0.05 0.06 0.06 0.04 0.03 0.03 0.03 0.02 0.02 0.03 0.04 0.04 0.04 0.06 0.07 0.08 0.08 0.08 0.08 0.08 0.08 0.08 0.07 0.07
0.05 0.05 0.03 0.03 0.04 0.03 0.01 0.00 0.01 0.03 0.04 0.05 0.06 0.05 0.03 0.01 0.01 0.01 0.02 0.04 0.04 0.04 0.04 0.03 0.03 0.03 0.03 0.03 0.04 0.04 0.04 0.04 0.04 0.06 0.07 0.07 0.07 0.07 0.08 0.08 0.09 0.09 0.07
MSLP
1011.36 1011.07 1010.73 1010.38 1010.05 1009.77 1009.53 1009.34 1009.16 1008.97 1008.76 1008.52 1008.27 1008.03 1007.84 1007.71 1007.67 1007.72 1007.84 1008.01 1008.20 1008.40 1008.60 1008.80 1009.00 1009.22 1009.47 1009.76 1010.08 1010.43 1010.79 1011.16 1011.53 1011.92 1012.32 1012.75 1013.23 1013.74 1014.29 1014.86 1015.43 1015.98 1016.49
1011.46 1011.15 1010.81 1010.47 1010.15 1009.86 1009.61 1009.38 1009.14 1008.89 1008.61 1008.31 1008.01 1007.74 1007.52 1007.38 1007.32 1007.34 1007.43 1007.55 1007.70 1007.85 1008.00 1008.16 1008.33 1008.54 1008.79 1009.09 1009.43 1009.79 1010.16 1010.54 1010.92 1011.30 1011.70 1012.13 1012.60 1013.11 1013.66 1014.24 1014.83 1015.41 1015.96
1011.46 1011.17 1010.86 1010.56 1010.28 1010.02 1009.78 1009.53 1009.26 1008.96 1008.63 1008.28 1007.93 1007.62 1007.37 1007.19 1007.10 1007.07 1007.10 1007.17 1007.24 1007.33 1007.42 1007.53 1007.67 1007.87 1008.11 1008.42 1008.76 1009.13 1009.51 1009.89 1010.27 1010.64 1011.03 1011.44 1011.90 1012.40 1012.95 1013.54 1014.15 1014.76 1015.36
1011.41 1011.16 1010.90 1010.66 1010.44 1010.23 1010.01 1009.77 1009.49 1009.16 1008.78 1008.39 1008.01 1007.66 1007.37 1007.16 1007.01 1006.93 1006.90 1006.88 1006.88 1006.89 1006.92 1006.98 1007.08 1007.25 1007.49 1007.79 1008.13 1008.50 1008.88 1009.25 1009.60 1009.95 1010.32 1010.70 1011.14 1011.63 1012.17 1012.76 1013.39 1014.03 1014.67
1011.36 1011.15 1010.96 1010.78 1010.63 1010.47 1010.29 1010.07 1009.78 1009.43 1009.03 1008.61 1008.20 1007.82 1007.50 1007.25 1007.06 1006.92 1006.82 1006.73 1006.65 1006.59 1006.55 1006.55 1006.62 1006.76 1006.97 1007.26 1007.59 1007.94 1008.30 1008.64 1008.97 1009.29 1009.61 1009.97 1010.37 1010.83 1011.35 1011.94 1012.57 1013.23 1013.90
1011.35 1011.18 1011.04 1010.93 1010.83 1010.72 1010.57 1010.36 1010.08 1009.73 1009.32 1008.89 1008.46 1008.06 1007.72 1007.44 1007.21 1007.02 1006.86 1006.70 1006.56 1006.42 1006.32 1006.27 1006.30 1006.40 1006.59 1006.85 1007.16 1007.49 1007.82 1008.13 1008.42 1008.70 1008.98 1009.28 1009.63 1010.05 1010.54 1011.10 1011.72 1012.39 1013.07
1011.40 1011.26 1011.15 1011.08 1011.02 1010.95 1010.82 1010.63 1010.35 1010.00 1009.60 1009.16 1008.73 1008.34 1007.98 1007.68 1007.43 1007.20 1006.99 1006.78 1006.58 1006.39 1006.24 1006.14 1006.13 1006.20 1006.36 1006.59 1006.88 1007.18 1007.47 1007.75 1007.99 1008.22 1008.45 1008.70 1009.00 1009.36 1009.80 1010.31 1010.90 1011.53 1012.20
1011.53 1011.39 1011.29 1011.24 1011.19 1011.13 1011.01 1010.82 1010.56 1010.22 1009.82 1009.40 1008.99 1008.60 1008.25 1007.95 1007.68 1007.43 1007.18 1006.93 1006.68 1006.45 1006.26 1006.13 1006.07 1006.12 1006.25 1006.45 1006.71 1006.98 1007.25 1007.49 1007.69 1007.88 1008.06 1008.25 1008.49 1008.79 1009.16 1009.61 1010.13 1010.71 1011.34
1011.70 1011.54 1011.44 1011.37 1011.31 1011.24 1011.12 1010.93 1010.67 1010.35 1009.98 1009.58 1009.19 1008.83 1008.49 1008.19 1007.92 1007.65 1007.38 1007.11 1006.83 1006.56 1006.33 1006.17 1006.09 1006.10 1006.21 1006.39 1006.62 1006.87 1007.11 1007.32 1007.50 1007.65 1007.79 1007.94 1008.11 1008.34 1008.63 1009.00 1009.44 1009.95 1010.51
1011.89 1011.69 1011.55 1011.44 1011.35 1011.26 1011.12 1010.93 1010.68 1010.38 1010.03 1009.67 1009.31 1008.98 1008.67 1008.39 1008.12 1007.84 1007.56 1007.27 1006.96 1006.67 1006.42 1006.22 1006.11 1006.10 1006.18 1006.33 1006.54 1006.77 1007.00 1007.20 1007.36 1007.49 1007.60 1007.70 1007.82 1007.98 1008.20 1008.48 1008.83 1009.25 1009.73
1012.03 1011.79 1011.59 1011.44 1011.31 1011.18 1011.02 1010.82 1010.58 1010.29 1009.98 1009.65 1009.33 1009.03 1008.75 1008.49 1008.23 1007.96 1007.68 1007.37 1007.05 1006.74 1006.47 1006.24 1006.11 1006.06 1006.11 1006.24 1006.42 1006.63 1006.85 1007.04 1007.19 1007.31 1007.40 1007.47 1007.55 1007.66 1007.80 1008.01 1008.27 1008.60 1008.99
1012.10 1011.80 1011.55 1011.35 1011.17 1011.00 1010.81 1010.60 1010.36 1010.09 1009.80 1009.51 1009.22 1008.96 1008.71 1008.48 1008.24 1007.99 1007.71 1007.41 1007.09 1006.76 1006.47 1006.22 1006.05 1005.97 1005.98 1006.07 1006.22 1006.41 1006.60 1006.78 1006.93 1007.04 1007.12 1007.17 1007.22 1007.28 1007.38 1007.51 1007.70 1007.95 1008.26
1012.06 1011.72 1011.42 1011.17 1010.94 1010.73 1010.51 1010.29 1010.04 1009.78 1009.51 1009.24 1008.99 1008.76 1008.55 1008.35 1008.14 1007.92 1007.66 1007.38 1007.06 1006.74 1006.43 1006.16 1005.96 1005.83 1005.80 1005.84 1005.94 1006.09 1006.25 1006.41 1006.54 1006.64 1006.71 1006.75 1006.77 1006.81 1006.86 1006.94 1007.08 1007.27 1007.52
1011.93 1011.56 1011.22 1010.92 1010.65 1010.40 1010.15 1009.90 1009.65 1009.38 1009.12 1008.87 1008.64 1008.44 1008.27 1008.10 1007.94 1007.76 1007.54 1007.29 1007.00 1006.69 1006.38 1006.09 1005.86 1005.68 1005.59 1005.57 1005.61 1005.70 1005.81 1005.93 1006.03 1006.10 1006.15 1006.17 1006.18 1006.19 1006.22 1006.28 1006.38 1006.53 1006.74
1011.74 1011.35 1010.98 1010.65 1010.35 1010.06 1009.78 1009.50 1009.22 1008.94 1008.67 1008.43 1008.22 1008.04 1007.90 1007.78 1007.67 1007.54 1007.38 1007.18 1006.93 1006.65 1006.35 1006.05 1005.78 1005.56 1005.40 1005.31 1005.28 1005.29 1005.34 1005.39 1005.44 1005.47 1005.49 1005.48 1005.47 1005.46 1005.47 1005.51 1005.59 1005.73 1005.92
1011.54 1011.14 1010.77 1010.42 1010.08 1009.77 1009.45 1009.14 1008.83 1008.53 1008.24 1007.99 1007.78 1007.62 1007.50 1007.42 1007.36 1007.30 1007.20 1007.07 1006.87 1006.63 1006.35 1006.05 1005.76 1005.50 1005.27 1005.11 1004.99 1004.92 1004.88 1004.86 1004.85 1004.82 1004.79 1004.74 1004.70 1004.67 1004.66 1004.69 1004.76 1004.89 1005.07
1011.36 1010.98 1010.60 1010.24 1009.90 1009.56 1009.22 1008.88 1008.53 1008.20 1007.88 1007.61 1007.39 1007.23 1007.14 1007.09 1007.08 1007.07 1007.04 1006.96 1006.83 1006.64 1006.39 1006.10 1005.79 1005.50 1005.22 1004.99 1004.80 1004.64 1004.52 1004.42 1004.32 1004.23 1004.13 1004.04 1003.96 1003.89 1003.86 1003.87 1003.93 1004.05 1004.23
1011.23 1010.86 1010.50 1010.15 1009.81 1009.46 1009.11 1008.74 1008.37 1008.00 1007.65 1007.35 1007.11 1006.94 1006.85 1006.82 1006.84 1006.87 1006.89 1006.87 1006.79 1006.64 1006.42 1006.16 1005.85 1005.54 1005.23 1004.95 1004.69 1004.47 1004.28 1004.10 1003.93 1003.77 1003.61 1003.45 1003.32 1003.21 1003.15 1003.13 1003.17 1003.27 1003.43
1011.12 1010.78 1010.45 1010.12 1009.79 1009.45 1009.10 1008.73 1008.34 1007.94 1007.57 1007.24 1006.97 1006.78 1006.67 1006.64 1006.66 1006.71 1006.76 1006.77 1006.73 1006.61 1006.43 1006.18 1005.89 1005.57 1005.25 1004.94 1004.65 1004.39 1004.14 1003.91 1003.68 1003.45 1003.23 1003.03 1002.84 1002.68 1002.57 1002.51 1002.52 1002.58 1002.71
1011.00 1010.69 1010.39 1010.09 1009.80 1009.49 1009.16 1008.80 1008.41 1008.01 1007.62 1007.26 1006.96 1006.74 1006.60 1006.54 1006.54 1006.58 1006.63 1006.65 1006.62 1006.52 1006.36 1006.13 1005.86 1005.55 1005.24 1004.93 1004.63 1004.35 1004.08 1003.81 1003.55 1003.28 1003.02 1002.76 1002.52 1002.32 1002.15 1002.05 1002.01 1002.02 1002.10
1010.82 1010.53 1010.27 1010.02 1009.78 1009.52 1009.23 1008.90 1008.54 1008.15 1007.76 1007.39 1007.06 1006.81 1006.63 1006.52 1006.48 1006.48 1006.49 1006.49 1006.45 1006.35 1006.19 1005.98 1005.73 1005.45 1005.16 1004.86 1004.58 1004.30 1004.03 1003.76 1003.48 1003.20 1002.90 1002.61 1002.34 1002.09 1001.88 1001.72 1001.63 1001.59 1001.61
1010.55 1010.29 1010.06 1009.87 1009.68 1009.48 1009.26 1008.98 1008.67 1008.31 1007.94 1007.57 1007.22 1006.93 1006.70 1006.54 1006.44 1006.39 1006.35 1006.30 1006.22 1006.11 1005.95 1005.74 1005.51 1005.25 1004.98 1004.72 1004.47 1004.22 1003.96 1003.70 1003.43 1003.14 1002.83 1002.52 1002.22 1001.94 1001.70 1001.50 1001.35 1001.26 1001.22
1010.18 1009.95 1009.76 1009.62 1009.49 1009.37 1009.21 1009.01 1008.75 1008.45 1008.10 1007.74 1007.39 1007.07 1006.80 1006.59 1006.42 1006.30 1006.20 1006.09 1005.98 1005.83 1005.66 1005.45 1005.23 1004.99 1004.76 1004.52 1004.30 1004.07 1003.84 1003.60 1003.33 1003.05 1002.74 1002.43 1002.12 1001.82 1001.55 1001.32 1001.14 1001.00 1000.90
1009.78 1009.56 1009.41 1009.31 1009.25 1009.19 1009.11 1008.97 1008.78 1008.53 1008.22 1007.89 1007.54 1007.21 1006.90 1006.64 1006.42 1006.23 1006.07 1005.92 1005.76 1005.58 1005.39 1005.18 1004.96 1004.74 1004.52 1004.31 1004.10 1003.89 1003.67 1003.43 1003.18 1002.90 1002.60 1002.28 1001.97 1001.67 1001.39 1001.14 1000.93 1000.77 1000.63
1009.40 1009.20 1009.08 1009.02 1009.01 1009.01 1008.99 1008.92 1008.78 1008.58 1008.31 1007.99 1007.65 1007.31 1006.99 1006.69 1006.43 1006.21 1006.00 1005.81 1005.62 1005.43 1005.22 1005.01 1004.79 1004.57 1004.36 1004.14 1003.93 1003.71 1003.49 1003.24 1002.97 1002.68 1002.38 1002.06 1001.75 1001.45 1001.17 1000.92 1000.71 1000.53 1000.38
1009.12 1008.94 1008.85 1008.83 1008.86 1008.90 1008.92 1008.89 1008.79 1008.62 1008.38 1008.08 1007.75 1007.41 1007.07 1006.76 1006.48 1006.23 1006.01 1005.80 1005.60 1005.40 1005.20 1004.98 1004.77 1004.54 1004.32 1004.09 1003.85 1003.60 1003.34 1003.06 1002.76 1002.45 1002.12 1001.79 1001.47 1001.18 1000.90 1000.66 1000.45 1000.27 1000.11
Thickness
5726 5724 5722 5720 5719 5718 5716 5715 5715 5714 5714 5714 5715 5715 5715 5715 5715 5715 5714 5713 5713 5711 5710 5709 5709 5708 5709 5708 5707 5707 5706 5705 5704 5703 5702 5701 5701 5700 5699 5699 5698 5698 5698
5722 5720 5718 5717 5715 5714 5713 5712 5711 5710 5709 5710 5710 5710 5711 5711 5711 5711 5710 5709 5709 5708 5707 5707 5706 5706 5705 5705 5704 5703 5703 5702 5701 5701 5700 5700 5699 5698 5697 5697 5696 5696 5696
5718 5715 5713 5711 5710 5709 5709 5708 5707 5706 5705 5706 5706 5706 5706 5707 5706 5706 5705 5705 5705 5705 5704 5703 5703 5702 5702 5701 5700 5700 5699 5699 5698 5698 5698 5697 5696 5696 5695 5695 5694 5694 5694
5714 5711 5708 5706 5705 5705 5704 5703 5702 5700 5699 5699 5699 5700 5701 5701 5701 5701 5701 5702 5702 5702 5701 5700 5700 5699 5699 5698 5697 5697 5696 5696 5695 5695 5695 5694 5694 5693 5693 5693 5692 5692 5692
5708 5706 5703 5701 5701 5700 5699 5699 5696 5694 5693 5692 5693 5694 5695 5695 5695 5695 5695 5696 5697 5697 5696 5696 5696 5695 5695 5695 5694 5693 5693 5692 5692 5692 5691 5691 5691 5691 5690 5691 5691 5691 5691
5704 5701 5700 5697 5696 5695 5694 5693 5691 5690 5689 5687 5688 5689 5689 5691 5691 5690 5690 5691 5691 5692 5691 5692 5691 5690 5691 5691 5690 5690 5689 5689 5688 5688 5688 5688 5688 5688 5688 5688 5688 5689 5689
5699 5698 5695 5693 5692 5690 5689 5689 5686 5685 5684 5683 5680 5679 5682 5686 5686 5685 5685 5684 5685 5686 5686 5687 5687 5686 5686 5686 5686 5685 5684 5684 5684 5684 5684 5684 5684 5684 5684 5685 5685 5685 5686
5695 5694 5691 5689 5688 5686 5684 5683 5681 5678 5678 5678 5674 5670 5669 5672 5676 5680 5679 5678 5679 5680 5680 5681 5682 5682 5682 5681 5681 5680 5679 5679 5678 5679 5679 5679 5679 5680 5680 5681 5681 5681 5682
5691 5690 5687 5685 5683 5681 5679 5678 5676 5673 5671 5671 5670 5665 5660 5659 5663 5669 5671 5671 5670 5671 5673 5675 5676 5677 5677 5676 5676 5675 5674 5673 5673 5673 5673 5673 5674 5674 5675 5676 5677 5677 5678
5688 5686 5683 5681 5678 5677 5675 5674 5673 5670 5667 5664 5664 5663 5661 5658 5653 5654 5660 5662 5663 5664 5666 5669 5670 5670 5670 5670 5670 5669 5669 5668 5667 5667 5667 5667 5668 5669 5670 5671 5671 5672 5674
5684 5683 5680 5677 5675 5673 5671 5670 5668 5666 5664 5660 5658 5657 5655 5654 5651 5647 5647 5651 5654 5657 5659 5661 5663 5663 5664 5664 5664 5664 5663 5662 5661 5661 5661 5661 5662 5663 5664 5665 5666 5667 5669
5679 5678 5676 5673 5670 5668 5666 5665 5663 5662 5659 5657 5655 5653 5650 5647 5645 5644 5642 5643 5644 5649 5653 5654 5655 5656 5657 5657 5658 5658 5657 5656 5655 5655 5654 5655 5655 5656 5658 5659 5661 5662 5663
5672 5671 5670 5667 5665 5663 5662 5660 5659 5657 5655 5652 5650 5648 5646 5645 5643 5641 5639 5638 5639 5642 5645 5647 5649 5649 5650 5651 5651 5651 5650 5649 5648 5648 5647 5648 5648 5649 5651 5653 5654 5656 5658
5667 5667 5665 5663 5661 5659 5658 5656 5654 5653 5651 5648 5646 5643 5641 5640 5639 5637 5635 5633 5632 5633 5635 5638 5641 5642 5643 5643 5643 5643 5642 5641 5641 5640 5640 5641 5641 5642 5644 5646 5648 5649 5651
5664 5663 5660 5658 5657 5655 5653 5651 5649 5647 5646 5643 5641 5639 5637 5635 5635 5634 5633 5630 5626 5623 5625 5630 5631 5635 5636 5636 5635 5634 5634 5633 5633 5633 5633 5633 5634 5635 5637 5639 5641 5642 5644
5659 5658 5656 5654 5652 5651 5649 5646 5644 5643 5641 5639 5637 5635 5632 5631 5630 5630 5628 5626 5624 5620 5619 5623 5624 5627 5627 5628 5627 5626 5626 5626 5626 5626 5626 5626 5627 5628 5630 5631 5634 5636 5638
5655 5654 5652 5650 5648 5647 5645 5642 5640 5639 5637 5634 5632 5631 5629 5626 5624 5623 5622 5620 5618 5616 5613 5615 5616 5618 5618 5618 5618 5618 5618 5618 5618 5618 5619 5619 5620 5621 5623 5624 5627 5629 5631
5651 5651 5649 5646 5645 5643 5641 5638 5635 5634 5632 5629 5627 5625 5623 5622 5618 5616 5614 5613 5612 5610 5607 5606 5607 5608 5609 5609 5609 5609 5610 5611 5611 5611 5612 5612 5613 5614 5616 5618 5620 5622 5624
5648 5647 5646 5643 5641 5639 5637 5635 5632 5630 5628 5625 5623 5620 5618 5615 5612 5610 5608 5606 5605 5605 5602 5599 5599 5600 5600 5601 5601 5602 5603 5603 5604 5605 5605 5606 5606 5608 5610 5611 5613 5615 5618
5646 5644 5642 5640 5638 5636 5633 5630 5628 5626 5623 5621 5618 5616 5613 5610 5607 5605 5604 5601 5599 5597 5594 5592 5592 5592 5592 5593 5593 5592 5593 5594 5595 5597 5598 5599 5600 5601 5603 5605 5607 5609 5611
5644 5642 5639 5637 5634 5632 5628 5625 5623 5622 5618 5616 5613 5611 5608 5606 5603 5601 5599 5596 5594 5591 5588 5585 5584 5584 5583 5583 5583 5583 5584 5585 5587 5588 5589 5590 5592 5594 5595 5597 5600 5602 5604
5641 5638 5635 5632 5629 5627 5622 5619 5617 5616 5614 5611 5608 5606 5604 5601 5599 5596 5594 5591 5589 5585 5581 5579 5577 5575 5575 5576 5576 5576 5575 5575 5577 5580 5580 5581 5584 5586 5588 5591 5594 5596 5598
5637 5635 5632 5629 5625 5620 5617 5615 5613 5611 5610 5607 5604 5601 5599 5598 5594 5591 5589 5588 5585 5581 5577 5573 5571 5570 5570 5570 5569 5568 5568 5568 5569 5572 5572 5574 5577 5578 5581 5584 5586 5589 5590
5635 5633 5630 5627 5622 5617 5613 5611 5610 5609 5607 5604 5602 5598 5594 5591 5589 5585 5584 5582 5580 5577 5574 5571 5568 5567 5567 5565 5563 5562 5562 5562 5564 5565 5566 5565 5568 5570 5574 5575 5578 5580 5581
5633 5631 5629 5625 5620 5615 5610 5608 5606 5606 5603 5601 5598 5594 5591 5586 5582 5580 5578 5576 5573 5571 5569 5567 5565 5563 5562 5560 5558 5555 5555 5554 5555 5558 5558 5557 5560 5561 5563 5565 5567 5569 5570
5631 5628 5626 5623 5618 5613 5608 5605 5602 5601 5599 5596 5593 5589 5585 5581 5576 5574 5571 5569 5566 5564 5563 5562 5560 5559 5557 5555 5553 5550 5549 5547 5548 5549 5551 5550 5550 5551 5552 5556 5557 5559 5560